DTA443 FNBJ-FNCT

Flight info

Callsign DTA443
Flight time 0h 44m
Altitude 28000
Route VBJ DCT EXALA DCT LIRAM DCT APKAT DCT VCT
Aircraft B737/M-SDE2E3FGHIRWXY/LB1

Departure

Time 2026-05-05 19:38
Airport Dr. Antonio Agostinho Neto International Airport (FNBJ)

Arrival

Time 2026-05-05 20:23
Airport Catumbela Airport (FNCT)
Time Latitude Longitude Altitude Speed Heading
2026-05-05 19:09 -9.05162 13.49639 572 ft 0 kts 142°
2026-05-05 19:23 -9.05159 13.49636 562 ft 3 kts 143°
2026-05-05 19:23 -9.05144 13.49626 576 ft 4 kts 147°
2026-05-05 19:23 -9.05121 13.49613 571 ft 4 kts 158°
2026-05-05 19:23 -9.05095 13.49606 573 ft 4 kts 186°
2026-05-05 19:24 -9.05078 13.49613 574 ft 1 kts 233°
2026-05-05 19:24 -9.05076 13.49616 574 ft 0 kts 233°
2026-05-05 19:26 -9.05106 13.49575 571 ft 12 kts 233°
2026-05-05 19:26 -9.05159 13.49503 569 ft 13 kts 232°
2026-05-05 19:26 -9.05211 13.49434 569 ft 12 kts 231°
2026-05-05 19:27 -9.05284 13.49428 575 ft 12 kts 141°
2026-05-05 19:27 -9.05350 13.49479 572 ft 12 kts 143°
2026-05-05 19:27 -9.05421 13.49532 568 ft 13 kts 144°
2026-05-05 19:27 -9.05490 13.49583 570 ft 12 kts 143°
2026-05-05 19:28 -9.05557 13.49634 570 ft 12 kts 143°
2026-05-05 19:28 -9.05623 13.49684 570 ft 12 kts 143°
2026-05-05 19:28 -9.05687 13.49732 572 ft 11 kts 143°
2026-05-05 19:28 -9.05749 13.49779 571 ft 11 kts 143°
2026-05-05 19:29 -9.05817 13.49830 573 ft 13 kts 143°
2026-05-05 19:29 -9.05894 13.49887 571 ft 14 kts 144°
2026-05-05 19:29 -9.05969 13.49944 573 ft 13 kts 143°
2026-05-05 19:29 -9.06042 13.50001 571 ft 14 kts 142°
2026-05-05 19:30 -9.06043 13.50082 573 ft 13 kts 56°
2026-05-05 19:30 -9.05988 13.50155 573 ft 13 kts 52°
2026-05-05 19:30 -9.05935 13.50226 570 ft 12 kts 53°
2026-05-05 19:30 -9.05883 13.50296 572 ft 13 kts 53°
2026-05-05 19:31 -9.05824 13.50376 571 ft 15 kts 53°
2026-05-05 19:31 -9.05758 13.50464 571 ft 17 kts 53°
2026-05-05 19:31 -9.05662 13.50593 571 ft 27 kts 53°
2026-05-05 19:31 -9.05550 13.50744 575 ft 26 kts 53°
2026-05-05 19:32 -9.05444 13.50885 571 ft 24 kts 53°
2026-05-05 19:32 -9.05347 13.51015 571 ft 23 kts 52°
2026-05-05 19:32 -9.05254 13.51142 571 ft 22 kts 53°
2026-05-05 19:32 -9.05162 13.51265 571 ft 22 kts 53°
2026-05-05 19:33 -9.05073 13.51385 575 ft 21 kts 53°
2026-05-05 19:33 -9.04987 13.51500 572 ft 20 kts 53°
2026-05-05 19:33 -9.04903 13.51613 572 ft 20 kts 52°
2026-05-05 19:33 -9.04822 13.51722 572 ft 19 kts 53°
2026-05-05 19:34 -9.04812 13.51814 575 ft 12 kts 134°
2026-05-05 19:34 -9.04882 13.51862 574 ft 12 kts 155°
2026-05-05 19:34 -9.04955 13.51849 575 ft 10 kts 231°
2026-05-05 19:35 -9.04963 13.51838 576 ft 0 kts 233°
2026-05-05 19:37 -9.05099 13.51653 572 ft 72 kts 233°
2026-05-05 19:37 -9.05550 13.51045 577 ft 140 kts 233°
2026-05-05 19:38 -9.06223 13.50130 808 ft 174 kts 233°
2026-05-05 19:38 -9.06953 13.49164 1659 ft 170 kts 233°
2026-05-05 19:38 -9.07662 13.48224 2513 ft 169 kts 231°
2026-05-05 19:38 -9.08423 13.47223 2925 ft 194 kts 231°
2026-05-05 19:39 -9.09284 13.46038 3199 ft 223 kts 233°
2026-05-05 19:39 -9.10248 13.44676 3415 ft 253 kts 233°
2026-05-05 19:39 -9.11324 13.43222 3943 ft 265 kts 223°
2026-05-05 19:39 -9.12924 13.42348 4757 ft 263 kts 189°
2026-05-05 19:40 -9.14730 13.42148 5669 ft 263 kts 184°
2026-05-05 19:40 -9.16585 13.42011 6404 ft 271 kts 183°
2026-05-05 19:40 -9.18484 13.41867 7172 ft 276 kts 184°
2026-05-05 19:40 -9.20413 13.41704 8007 ft 280 kts 184°
2026-05-05 19:41 -9.22366 13.41521 8897 ft 285 kts 185°
2026-05-05 19:41 -9.24374 13.41320 9710 ft 293 kts 186°
2026-05-05 19:41 -9.26424 13.41103 10448 ft 303 kts 186°
2026-05-05 19:41 -9.28611 13.40864 10808 ft 325 kts 186°
2026-05-05 19:42 -9.30870 13.40610 11488 ft 334 kts 186°
2026-05-05 19:42 -9.33187 13.40345 12329 ft 337 kts 186°
2026-05-05 19:42 -9.35537 13.40073 13185 ft 341 kts 186°
2026-05-05 19:42 -9.37923 13.39796 13983 ft 346 kts 186°
2026-05-05 19:43 -9.40336 13.39514 14707 ft 352 kts 186°
2026-05-05 19:43 -9.42786 13.39227 15434 ft 357 kts 186°
2026-05-05 19:43 -9.45266 13.38936 16182 ft 361 kts 186°
2026-05-05 19:43 -9.47795 13.38638 16880 ft 368 kts 186°
2026-05-05 19:44 -9.50357 13.38337 17575 ft 374 kts 186°
2026-05-05 19:44 -9.52959 13.38031 18295 ft 378 kts 186°
2026-05-05 19:44 -9.55578 13.37722 18957 ft 380 kts 186°
2026-05-05 19:44 -9.58180 13.37416 19642 ft 382 kts 187°
2026-05-05 19:45 -9.60835 13.37104 20303 ft 385 kts 187°
2026-05-05 19:45 -9.63505 13.36789 20958 ft 387 kts 187°
2026-05-05 19:45 -9.66186 13.36474 21626 ft 389 kts 187°
2026-05-05 19:45 -9.68883 13.36156 22303 ft 391 kts 187°
2026-05-05 19:46 -9.71588 13.35837 23094 ft 389 kts 187°
2026-05-05 19:46 -9.74267 13.35522 23881 ft 385 kts 187°
2026-05-05 19:46 -9.76925 13.35208 24554 ft 384 kts 187°
2026-05-05 19:46 -9.79580 13.34895 25152 ft 385 kts 187°
2026-05-05 19:47 -9.82242 13.34581 25726 ft 387 kts 187°
2026-05-05 19:47 -9.84923 13.34264 25905 ft 387 kts 187°
2026-05-05 19:47 -9.87582 13.33950 25934 ft 383 kts 187°
2026-05-05 19:47 -9.90205 13.33641 25948 ft 385 kts 187°
2026-05-05 19:48 -9.92866 13.33326 25954 ft 386 kts 187°
2026-05-05 19:48 -9.95576 13.33007 26027 ft 396 kts 187°
2026-05-05 19:48 -9.98321 13.32682 26424 ft 402 kts 187°
2026-05-05 19:48 -10.01100 13.32354 27068 ft 401 kts 187°
2026-05-05 19:49 -10.03872 13.32027 27696 ft 399 kts 187°
2026-05-05 19:49 -10.05707 13.31810 27880 ft 401 kts 187°
2026-05-05 19:49 -10.09407 13.31371 27938 ft 398 kts 187°
2026-05-05 19:49 -10.12152 13.31045 27944 ft 397 kts 187°
2026-05-05 19:50 -10.14871 13.30724 27954 ft 396 kts 187°
2026-05-05 19:50 -10.17611 13.30403 27957 ft 397 kts 187°
2026-05-05 19:50 -10.20370 13.30277 27947 ft 398 kts 180°
2026-05-05 19:50 -10.23142 13.30366 27956 ft 398 kts 178°
2026-05-05 19:51 -10.25909 13.30514 27953 ft 398 kts 178°
2026-05-05 19:51 -10.28682 13.30671 27950 ft 399 kts 178°
2026-05-05 19:51 -10.31458 13.30821 27949 ft 399 kts 178°
2026-05-05 19:51 -10.34202 13.30957 27949 ft 398 kts 178°
2026-05-05 19:52 -10.36971 13.31085 27943 ft 398 kts 178°
2026-05-05 19:52 -10.39744 13.31206 27945 ft 398 kts 179°
2026-05-05 19:52 -10.42510 13.31323 27947 ft 398 kts 179°
2026-05-05 19:52 -10.45279 13.31439 27947 ft 397 kts 179°
2026-05-05 19:53 -10.48047 13.31555 27948 ft 397 kts 179°
2026-05-05 19:53 -10.50813 13.31670 27947 ft 397 kts 179°
2026-05-05 19:53 -10.53574 13.31784 27952 ft 397 kts 179°
2026-05-05 19:53 -10.56312 13.31898 27945 ft 397 kts 179°
2026-05-05 19:54 -10.59081 13.32014 27948 ft 397 kts 179°
2026-05-05 19:54 -10.61845 13.32129 27948 ft 397 kts 179°
2026-05-05 19:54 -10.64607 13.32244 27947 ft 397 kts 179°
2026-05-05 19:54 -10.67364 13.32359 27947 ft 397 kts 179°
2026-05-05 19:55 -10.70122 13.32474 27952 ft 397 kts 179°
2026-05-05 19:55 -10.72849 13.32588 27955 ft 397 kts 179°
2026-05-05 19:55 -10.75608 13.32702 27949 ft 397 kts 179°
2026-05-05 19:55 -10.78379 13.32816 27949 ft 397 kts 179°
2026-05-05 19:56 -10.81144 13.32931 27946 ft 397 kts 179°
2026-05-05 19:56 -10.83912 13.33048 27955 ft 397 kts 179°
2026-05-05 19:56 -10.86642 13.33163 27947 ft 397 kts 179°
2026-05-05 19:56 -10.89412 13.33280 27947 ft 397 kts 179°
2026-05-05 19:57 -10.92185 13.33398 27947 ft 397 kts 179°
2026-05-05 19:57 -10.94013 13.33475 27947 ft 397 kts 179°
2026-05-05 19:57 -10.97719 13.33631 27948 ft 397 kts 179°
2026-05-05 19:57 -11.00482 13.33747 27951 ft 397 kts 179°
2026-05-05 19:58 -11.03219 13.33862 27946 ft 398 kts 179°
2026-05-05 19:58 -11.05989 13.33977 27945 ft 398 kts 179°
2026-05-05 19:58 -11.08761 13.34093 27948 ft 398 kts 179°
2026-05-05 19:58 -11.11532 13.34208 27947 ft 398 kts 179°
2026-05-05 19:59 -11.14305 13.34324 27947 ft 398 kts 179°
2026-05-05 19:59 -11.17076 13.34439 27948 ft 398 kts 179°
2026-05-05 19:59 -11.19809 13.34553 27947 ft 398 kts 179°
2026-05-05 19:59 -11.22584 13.34668 27951 ft 398 kts 179°
2026-05-05 20:00 -11.25357 13.34784 27954 ft 399 kts 179°
2026-05-05 20:00 -11.28137 13.34899 27948 ft 398 kts 179°
2026-05-05 20:00 -11.30913 13.35015 27951 ft 398 kts 179°
2026-05-05 20:00 -11.33662 13.35129 27951 ft 398 kts 179°
2026-05-05 20:01 -11.36437 13.35245 27950 ft 399 kts 179°
2026-05-05 20:01 -11.39213 13.35360 27947 ft 399 kts 179°
2026-05-05 20:01 -11.41995 13.35476 27852 ft 400 kts 179°
2026-05-05 20:01 -11.44794 13.35592 27420 ft 401 kts 179°
2026-05-05 20:02 -11.47571 13.35708 26964 ft 399 kts 179°
2026-05-05 20:02 -11.50337 13.35824 26511 ft 395 kts 179°
2026-05-05 20:02 -11.53046 13.35936 26069 ft 392 kts 179°
2026-05-05 20:02 -11.55769 13.36049 25608 ft 390 kts 179°
2026-05-05 20:03 -11.58473 13.36160 25136 ft 388 kts 179°
2026-05-05 20:03 -11.61167 13.36271 24673 ft 386 kts 179°
2026-05-05 20:03 -11.63850 13.36383 24211 ft 384 kts 179°
2026-05-05 20:03 -11.66521 13.36498 23751 ft 383 kts 178°
2026-05-05 20:04 -11.69142 13.36749 23271 ft 381 kts 174°
2026-05-05 20:04 -11.71767 13.37109 22766 ft 379 kts 173°
2026-05-05 20:04 -11.74368 13.37501 22282 ft 376 kts 173°
2026-05-05 20:04 -11.76946 13.37893 21810 ft 373 kts 173°
2026-05-05 20:05 -11.79511 13.38278 21348 ft 370 kts 173°
2026-05-05 20:05 -11.82032 13.38648 20893 ft 368 kts 173°
2026-05-05 20:05 -11.84561 13.39013 20433 ft 365 kts 173°
2026-05-05 20:05 -11.87084 13.39374 19962 ft 364 kts 173°
2026-05-05 20:06 -11.89564 13.39726 19493 ft 363 kts 173°
2026-05-05 20:06 -11.92063 13.40079 19030 ft 361 kts 173°
2026-05-05 20:06 -11.94560 13.40432 18565 ft 360 kts 173°
2026-05-05 20:06 -11.97050 13.40783 18073 ft 360 kts 173°
2026-05-05 20:07 -11.99533 13.41134 17571 ft 358 kts 173°
2026-05-05 20:07 -12.01989 13.41481 17103 ft 355 kts 172°
2026-05-05 20:07 -12.04379 13.41764 16969 ft 342 kts 175°
2026-05-05 20:07 -12.06700 13.41980 16771 ft 329 kts 175°
2026-05-05 20:08 -12.08942 13.42176 16446 ft 318 kts 175°
2026-05-05 20:08 -12.11144 13.42371 15908 ft 317 kts 175°
2026-05-05 20:08 -12.13303 13.42565 15411 ft 314 kts 175°
2026-05-05 20:08 -12.15477 13.42766 14914 ft 311 kts 174°
2026-05-05 20:09 -12.17615 13.42965 14487 ft 307 kts 174°
2026-05-05 20:09 -12.19717 13.43163 14037 ft 303 kts 174°
2026-05-05 20:09 -12.21813 13.43361 13539 ft 301 kts 173°
2026-05-05 20:09 -12.23888 13.43559 13021 ft 298 kts 173°
2026-05-05 20:10 -12.25949 13.43755 12503 ft 295 kts 173°
2026-05-05 20:10 -12.27988 13.43804 11968 ft 295 kts 188°
2026-05-05 20:10 -12.29897 13.43063 11449 ft 295 kts 213°
2026-05-05 20:10 -12.30922 13.42156 11115 ft 295 kts 229°
2026-05-05 20:11 -12.32047 13.39671 10453 ft 293 kts 262°
2026-05-05 20:11 -12.32051 13.38261 10103 ft 293 kts 279°
2026-05-05 20:11 -12.31357 13.36352 9597 ft 291 kts 304°
2026-05-05 20:11 -12.29943 13.34899 9176 ft 289 kts 328°
2026-05-05 20:12 -12.28128 13.34104 8826 ft 283 kts 350°
2026-05-05 20:12 -12.26183 13.33838 8465 ft 281 kts 355°
2026-05-05 20:12 -12.23603 13.33587 7938 ft 281 kts 355°
2026-05-05 20:12 -12.22287 13.33456 7687 ft 281 kts 355°
2026-05-05 20:13 -12.20342 13.33257 7337 ft 280 kts 355°
2026-05-05 20:13 -12.18406 13.33242 6953 ft 278 kts 13°
2026-05-05 20:13 -12.16641 13.34013 6578 ft 276 kts 37°
2026-05-05 20:13 -12.15333 13.35377 6239 ft 272 kts 58°
2026-05-05 20:14 -12.14619 13.37142 5873 ft 269 kts 81°
2026-05-05 20:14 -12.14625 13.39029 5515 ft 265 kts 104°
2026-05-05 20:14 -12.15342 13.40743 5170 ft 261 kts 127°
2026-05-05 20:14 -12.16611 13.42043 4833 ft 258 kts 146°
2026-05-05 20:15 -12.18191 13.42834 4631 ft 246 kts 167°
2026-05-05 20:15 -12.19807 13.43082 4528 ft 230 kts 174°
2026-05-05 20:15 -12.21357 13.43252 4412 ft 217 kts 174°
2026-05-05 20:15 -12.22817 13.43461 4193 ft 208 kts 161°
2026-05-05 20:16 -12.23990 13.44290 3800 ft 209 kts 129°
2026-05-05 20:16 -12.24768 13.45545 3462 ft 210 kts 120°
2026-05-05 20:16 -12.25456 13.46866 3194 ft 210 kts 118°
2026-05-05 20:16 -12.26140 13.48180 2972 ft 208 kts 118°
2026-05-05 20:17 -12.26824 13.49479 2781 ft 204 kts 118°
2026-05-05 20:17 -12.27475 13.50708 2713 ft 190 kts 118°
2026-05-05 20:17 -12.28188 13.51763 2574 ft 177 kts 145°
2026-05-05 20:17 -12.29310 13.52039 2401 ft 165 kts 183°
2026-05-05 20:18 -12.30454 13.51927 2112 ft 164 kts 187°
2026-05-05 20:18 -12.31611 13.51738 2081 ft 171 kts 189°
2026-05-05 20:18 -12.32776 13.51525 2040 ft 167 kts 189°
2026-05-05 20:18 -12.33898 13.51319 2034 ft 162 kts 189°
2026-05-05 20:19 -12.34949 13.51123 2053 ft 147 kts 189°
2026-05-05 20:19 -12.35944 13.50938 2038 ft 144 kts 189°
2026-05-05 20:19 -12.36924 13.50757 1969 ft 144 kts 189°
2026-05-05 20:19 -12.37911 13.50584 1805 ft 143 kts 189°
2026-05-05 20:20 -12.38877 13.50403 1603 ft 142 kts 190°
2026-05-05 20:20 -12.39843 13.50221 1409 ft 140 kts 190°
2026-05-05 20:20 -12.40804 13.50045 1222 ft 140 kts 190°
2026-05-05 20:20 -12.41763 13.49866 1035 ft 140 kts 191°
2026-05-05 20:21 -12.42724 13.49687 864 ft 138 kts 191°
2026-05-05 20:21 -12.43658 13.49515 680 ft 136 kts 191°
2026-05-05 20:21 -12.44574 13.49347 474 ft 135 kts 191°
2026-05-05 20:21 -12.45507 13.49174 271 ft 137 kts 191°
2026-05-05 20:22 -12.46438 13.49005 47 ft 133 kts 192°
2026-05-05 20:22 -12.47262 13.48853 15 ft 105 kts 190°
2026-05-05 20:22 -12.47832 13.48747 13 ft 61 kts 190°
2026-05-05 20:22 -12.48200 13.48679 12 ft 51 kts 191°
2026-05-05 20:23 -12.48524 13.48618 12 ft 44 kts 190°
2026-05-05 20:23 -12.48809 13.48566 11 ft 39 kts 190°
2026-05-05 20:23 -12.49061 13.48519 12 ft 35 kts 190°
2026-05-05 20:23 -12.49284 13.48479 13 ft 31 kts 189°
2026-05-05 20:24 -12.49490 13.48441 15 ft 27 kts 188°
2026-05-05 20:24 -12.49593 13.48480 14 ft 16 kts 114°
2026-05-05 20:24 -12.49613 13.48592 12 ft 16 kts 98°
2026-05-05 20:24 -12.49631 13.48700 12 ft 15 kts 100°
2026-05-05 20:25 -12.49580 13.48771 12 ft 15 kts 11°
2026-05-05 20:25 -12.49482 13.48788 12 ft 14 kts
2026-05-05 20:25 -12.49390 13.48804 12 ft 13 kts 11°
2026-05-05 20:25 -12.49327 13.48825 13 ft 5 kts 57°
2026-05-05 20:26 -12.49325 13.48861 12 ft 5 kts 90°
2026-05-05 20:26 -12.49325 13.48888 11 ft 0 kts 88°
2026-05-05 20:27 -12.49326 13.48899 11 ft 0 kts 87°